W4SNA-2 Weather Reports


time (UTC)temp
C
wind
direction
speed
KPH
gust
KPH
rain 1hr
cm
rain 24hr
cm
rain mn
cm
humidity
%
barometer
mb
20260903162656 31 0 0.0 1.6 0.00 0.00 0.00 59 1023.0
20260903162158 31 0 0.0 3.2 0.00 0.00 0.00 59 1023.1
20260903161728 31 0 0.0 6.4 0.00 0.00 0.00 58 1023.1
20260903161656 31 0 0.0 6.4 0.00 0.00 0.00 58 1023.1
20260903161252 31 328 1.6 6.4 0.00 0.00 0.00 58 1023.1
20260903161159 31 328 1.6 6.4 0.00 0.00 0.00 58 1023.1
20260903160738 31 0 0.0 4.8 0.00 0.00 0.00 59 1023.2
20260903160656 31 0 0.0 4.8 0.00 0.00 0.00 59 1023.2
20260903160409 31 0 0.0 4.8 0.00 0.00 0.00 60 1023.2
20260903160156 31 0 0.0 4.8 0.00 0.00 0.00 60 1023.2
20260903155819 30 0 0.0 4.8 0.00 0.00 0.00 60 1023.2
20260903155656 30 0 0.0 4.8 0.00 0.00 0.00 60 1023.2
20260903155248 30 0 0.0 4.8 0.00 0.00 0.00 62 1023.2
20260903155158 30 0 0.0 4.8 0.00 0.00 0.00 62 1023.2
20260903154728 30 0 0.0 8.0 0.00 0.00 0.00 62 1023.3
20260903154656 30 0 0.0 8.0 0.00 0.00 0.00 62 1023.3
20260903154157 30 328 1.6 8.0 0.00 0.00 0.00 61 1023.4
20260903153656 31 0 0.0 3.2 0.00 0.00 0.00 60 1023.4
20260903153348 30 0 0.0 0.0 0.00 0.00 0.00 60 1023.3
20260903153344 30 0 0.0 4.8 0.00 0.00 0.00 63 1023.4
20260903153202 30 0 0.0 0.0 0.00 0.00 0.00 60 1023.3
20260903152657 30 0 0.0 4.8 0.00 0.00 0.00 63 1023.4
20260903152156 30 0 0.0 4.8 0.00 0.00 0.00 62 1023.5
20260903151656 30 0 0.0 6.4 0.00 0.00 0.00 62 1023.4
20260903151156 30 0 0.0 6.4 0.00 0.00 0.00 63 1023.4
20260903150734 30 0 0.0 4.8 0.00 0.00 0.00 62 1023.4
20260903150656 30 0 0.0 4.8 0.00 0.00 0.00 62 1023.4
20260903150159 30 0 0.0 3.2 0.00 0.00 0.00 61 1023.5
20260903145735 30 0 0.0 3.2 0.00 0.00 0.00 61 1023.4
20260903145657 30 0 0.0 3.2 0.00 0.00 0.00 61 1023.4
20260903145156 30 0 0.0 3.2 0.00 0.00 0.00 60 1023.4
20260903144656 30 0 0.0 0.0 0.00 0.00 0.00 60 1023.4
20260903144159 30 0 0.0 0.0 0.00 0.00 0.00 63 1023.4
20260903143656 30 0 0.0 0.0 0.00 0.00 0.00 61 1023.4
20260903143157 30 0 0.0 0.0 0.00 0.00 0.00 63 1023.4
20260903142657 30 0 0.0 1.6 0.00 0.00 0.00 62 1023.3
20260903142200 30 0 0.0 1.6 0.00 0.00 0.00 63 1023.3
20260903141656 30 0 0.0 0.0 0.00 0.00 0.00 63 1023.3
20260903141200 30 0 0.0 0.0 0.00 0.00 0.00 63 1023.3
20260903140656 29 0 0.0 0.0 0.00 0.00 0.00 63 1023.3
20260903140157 30 0 0.0 3.2 0.00 0.00 0.00 62 1023.3
20260903135657 29 0 0.0 3.2 0.00 0.00 0.00 62 1023.3
20260903135051 27 0 0.0 0.0 0.00 0.00 0.00 69 1023.1
20260903135003 29 0 0.0 0.0 0.00 0.00 0.00 63 1023.1
20260903134503 28 0 0.0 0.0 0.00 0.00 0.00 65 1023.2
20260903134005 28 0 0.0 0.0 0.00 0.00 0.00 67 1023.1
20260903133503 28 0 0.0 0.0 0.00 0.00 0.00 67 1023.1
20260903133003 28 0 0.0 0.0 0.00 0.00 0.00 67 1023.1
20260903132503 28 0 0.0 0.0 0.00 0.00 0.00 66 1023.1
20260903132003 27 0 0.0 0.0 0.00 0.00 0.00 68 1023.0
20260903131503 27 0 0.0 0.0 0.00 0.00 0.00 69 1023.1
20260903131003 27 0 0.0 0.0 0.00 0.00 0.00 70 1023.1
20260903130503 27 0 0.0 0.0 0.00 0.00 0.00 70 1023.2
20260903130004 27 0 0.0 3.2 0.00 0.00 0.00 71 1023.3
20260903125505 27 0 0.0 3.2 0.00 0.00 0.00 70 1023.2
20260903125003 26 0 0.0 3.2 0.00 0.00 0.00 73 1023.3
20260903124503 26 0 0.0 0.0 0.00 0.00 0.00 73 1023.2
20260903124003 26 0 0.0 0.0 0.00 0.00 0.00 73 1023.2
20260903123506 26 0 0.0 6.4 0.00 0.00 0.00 73 1023.1
20260903123014 26 328 1.6 6.4 0.00 0.00 0.00 74 1023.1
20260903122503 26 0 0.0 6.4 0.00 0.00 0.00 75 1023.0
20260903122003 26 0 0.0 4.8 0.00 0.00 0.00 74 1023.0
20260903121503 26 0 0.0 0.0 0.00 0.00 0.00 74 1023.0
20260903121052 26 0 0.0 4.8 0.00 0.00 0.00 74 1023.0
20260903121003 26 0 0.0 4.8 0.00 0.00 0.00 74 1023.0
20260903120503 26 0 0.0 4.8 0.00 0.00 0.00 74 1023.0
20260903120003 26 0 0.0 0.0 0.00 0.00 0.00 75 1022.9
20260903115503 25 0 0.0 0.0 0.00 0.00 0.00 75 1022.9
20260903115004 25 0 0.0 4.8 0.00 0.00 0.00 75 1022.9
20260903114503 25 0 0.0 6.4 0.00 0.00 0.00 76 1022.8
20260903114003 25 328 3.2 6.4 0.00 0.00 0.00 75 1022.7
20260903113424 25 328 3.2 8.0 0.00 0.00 0.00 75 1022.6
20260903112851 25 328 3.2 6.4 0.00 0.00 0.00 75 1022.6
20260903112131 25 0 0.0 0.0 0.00 0.00 0.00 74 1022.6
20260903111629 25 0 0.0 0.0 0.00 0.00 0.00 74 1022.5
20260903111130 25 0 0.0 4.8 0.00 0.00 0.00 74 1022.5
20260903110629 25 0 0.0 6.4 0.00 0.00 0.00 74 1022.3
20260903110131 25 328 3.2 6.4 0.00 0.00 0.00 74 1022.2
20260903105629 25 328 3.2 6.4 0.00 0.00 0.00 74 1022.2
20260903105128 25 328 1.6 6.4 0.00 0.00 0.00 74 1022.2
20260903104631 26 0 0.0 6.4 0.00 0.00 0.00 74 1022.1
20260903104132 26 328 3.2 6.4 0.00 0.00 0.00 74 1022.0
20260903103631 26 328 1.6 6.4 0.00 0.00 0.00 74 1022.0
20260903103129 26 328 1.6 4.8 0.00 0.00 0.00 74 1022.0
20260903102629 25 328 3.2 4.8 0.00 0.00 0.00 75 1022.0
20260903102132 25 328 1.6 6.4 0.00 0.00 0.00 75 1021.9
20260903101630 25 328 3.2 6.4 0.00 0.00 0.00 74 1021.9
20260903101130 25 328 3.2 6.4 0.00 0.00 0.00 75 1022.0
20260903100630 25 328 3.2 8.0 0.00 0.00 0.00 76 1022.1
20260903100128 25 328 4.8 9.7 0.00 0.00 0.00 77 1022.1
20260903095630 25 328 4.8 12.9 0.00 0.00 0.00 77 1022.0
20260903095129 25 328 4.8 12.9 0.00 0.00 0.00 77 1022.0
20260903094632 25 328 3.2 8.0 0.00 0.00 0.00 76 1022.1
20260903094130 25 328 1.6 9.7 0.00 0.00 0.00 75 1022.1
20260903093629 25 328 4.8 9.7 0.00 0.00 0.00 74 1022.0
20260903093136 25 328 4.8 8.0 0.00 0.00 0.00 73 1022.1
20260903092630 26 0 0.0 12.9 0.00 0.00 0.00 72 1022.1
20260903092128 26 328 1.6 12.9 0.00 0.00 0.00 71 1022.1
20260903091629 26 328 4.8 8.0 0.00 0.00 0.00 71 1022.0
20260903091129 26 328 3.2 8.0 0.00 0.00 0.00 70 1022.0
20260903090630 26 328 3.2 8.0 0.00 0.00 0.00 69 1022.0
20260903090130 26 328 4.8 8.0 0.00 0.00 0.00 69 1022.0
20260903085630 26 328 3.2 4.8 0.00 0.00 0.00 69 1022.0
20260903085129 26 328 3.2 4.8 0.00 0.00 0.00 69 1021.9
20260903084859 26 328 3.2 6.4 0.00 0.00 0.00 68 1021.9
20260903084630 26 328 3.2 8.0 0.00 0.00 0.00 69 1021.9
20260903084128 26 328 3.2 8.0 0.00 0.00 0.00 69 1021.9
20260903083628 26 328 3.2 6.4 0.00 0.00 0.00 69 1021.9
20260903083131 26 328 3.2 6.4 0.00 0.00 0.00 68 1021.9
20260903082628 26 328 3.2 8.0 0.00 0.00 0.00 68 1022.0
20260903082129 27 328 3.2 8.0 0.00 0.00 0.00 67 1022.0
20260903081631 27 328 4.8 8.0 0.00 0.00 0.00 67 1021.9
20260903081129 27 328 3.2 8.0 0.00 0.00 0.00 67 1021.9
20260903080630 27 328 3.2 6.4 0.00 0.00 0.00 68 1021.9
20260903080130 27 328 1.6 4.8 0.00 0.00 0.00 68 1021.9
20260903075628 27 0 0.0 4.8 0.00 0.00 0.00 68 1021.9
20260903075131 27 0 0.0 8.0 0.00 0.00 0.00 67 1021.9
20260903074630 27 328 3.2 8.0 0.00 0.00 0.00 67 1020.8
20260903074128 27 328 3.2 8.0 0.00 0.00 0.00 68 1020.8
20260903073629 27 328 3.2 9.7 0.00 0.00 0.00 68 1020.8
20260903073130 27 328 4.8 9.7 0.00 0.00 0.00 68 1020.8
20260903072629 27 328 4.8 8.0 0.00 0.00 0.00 68 1020.8
20260903072130 27 328 3.2 6.4 0.00 0.00 0.00 68 1020.7
20260903071630 27 328 3.2 6.4 0.00 0.00 0.00 68 1020.7
20260903071129 27 328 1.6 4.8 0.00 0.00 0.00 68 1020.6
20260903070630 27 0 0.0 4.8 0.00 0.00 0.00 68 1020.7
20260903070130 27 0 0.0 4.8 0.00 0.00 0.00 68 1020.7
20260903065504 27 0 0.0 4.8 0.00 0.00 0.00 68 1020.8
20260903064350 27 328 3.2 9.7 0.00 0.00 0.00 67 1020.7
20260903063850 27 328 3.2 8.0 0.00 0.00 0.00 65 1020.8
20260903063347 27 328 3.2 8.0 0.00 0.00 0.00 65 1020.9
20260903062846 27 328 4.8 8.0 0.00 0.00 0.00 67 1020.9
20260903062347 27 328 3.2 8.0 0.00 0.00 0.00 68 1020.9
20260903061847 27 328 3.2 8.0 0.00 0.00 0.00 68 1020.9
20260903061348 27 328 4.8 8.0 0.00 0.00 0.00 69 1020.9
20260903060848 27 328 3.2 8.0 0.00 0.00 0.00 69 1021.0
20260903060347 27 328 3.2 9.7 0.00 0.00 0.00 69 1021.0
20260903055849 27 328 4.8 9.7 0.00 0.00 0.00 69 1021.0
20260903055354 27 328 6.4 9.7 0.00 0.00 0.00 68 1020.9
20260903054848 27 328 6.4 9.7 0.00 0.00 0.00 67 1021.1
20260903054347 27 328 4.8 9.7 0.00 0.00 0.00 67 1021.0
20260903053846 27 328 4.8 9.7 0.00 0.00 0.00 67 1021.0
20260903053349 27 328 4.8 9.7 0.00 0.00 0.00 67 1021.2
20260903052847 27 328 4.8 9.7 0.00 0.00 0.00 67 1021.1
20260903052346 27 328 4.8 9.7 0.00 0.00 0.00 66 1021.2
20260903051847 27 328 4.8 9.7 0.00 0.00 0.00 66 1021.1
20260903051348 27 328 4.8 12.9 0.00 0.00 0.00 65 1021.1
20260903050849 27 328 6.4 14.5 0.00 0.00 0.00 65 1021.0
20260903050348 27 328 6.4 14.5 0.00 0.00 0.00 67 1021.0
20260903045507 27 328 6.4 12.9 0.00 0.00 0.00 68 1021.0
20260903045007 27 328 6.4 14.5 0.00 0.00 0.00 67 1021.0
20260903044507 27 328 6.4 14.5 0.00 0.00 0.00 67 1021.1
20260903044007 27 328 6.4 16.1 0.00 0.00 0.00 66 1021.2
20260903043507 27 328 6.4 16.1 0.00 0.00 0.00 65 1021.1
20260903043007 28 328 6.4 9.7 0.00 0.00 0.00 63 1021.1
20260903042433 28 328 4.8 12.9 0.00 0.00 0.00 62 1021.1
20260903041748 28 328 4.8 12.9 0.00 0.00 0.00 62 1021.0
20260903041248 28 328 4.8 12.9 0.00 0.00 0.00 62 1021.1
20260903040749 28 328 4.8 9.7 0.00 0.00 0.00 61 1021.3
20260903040248 28 328 3.2 12.9 0.00 0.00 0.00 62 1021.4
20260903035748 28 328 4.8 12.9 0.00 0.00 0.00 62 1021.3
20260903035248 28 328 3.2 8.0 0.00 0.00 0.00 61 1021.3
20260903034748 28 328 3.2 8.0 0.00 0.00 0.00 62 1021.3
20260903034248 28 328 3.2 8.0 0.00 0.00 0.00 63 1021.4
20260903033748 28 328 1.6 4.8 0.00 0.00 0.00 64 1021.5
20260903033249 28 0 0.0 1.6 0.00 0.00 0.00 64 1021.6
20260903032748 28 0 0.0 1.6 0.00 0.00 0.00 64 1021.6
20260903032248 28 0 0.0 3.2 0.00 0.00 0.00 64 1021.6
20260903031748 28 0 0.0 3.2 0.00 0.00 0.00 64 1021.6
20260903031248 28 0 0.0 3.2 0.00 0.00 0.00 65 1021.6
20260903030748 28 0 0.0 4.8 0.00 0.00 0.00 65 1021.7
20260903030248 28 0 0.0 6.4 0.00 0.00 0.00 66 1021.7
20260903025748 28 0 0.0 6.4 0.00 0.00 0.00 65 1021.7
20260903025248 28 0 0.0 6.4 0.00 0.00 0.00 65 1021.8
20260903024748 28 0 0.0 6.4 0.00 0.00 0.00 64 1021.9
20260903024248 28 0 0.0 6.4 0.00 0.00 0.00 64 1022.0
20260903023748 28 0 0.0 4.8 0.00 0.00 0.00 64 1022.0
20260903023248 28 0 0.0 4.8 0.00 0.00 0.00 64 1022.0
20260903022311 28 0 0.0 4.8 0.00 0.00 0.00 63 1022.0
20260903021811 28 0 0.0 3.2 0.00 0.00 0.00 64 1022.0
20260903021311 28 0 0.0 0.0 0.00 0.00 0.00 61 1022.1
20260903020813 28 0 0.0 0.0 0.00 0.00 0.00 59 1022.1
20260903020228 28 0 0.0 0.0 0.00 0.00 0.00 60 1022.2
20260903015728 28 0 0.0 0.0 0.00 0.00 0.00 61 1022.1
20260903015228 28 0 0.0 0.0 0.00 0.00 0.00 62 1022.1
20260903014728 28 0 0.0 3.2 0.00 0.00 0.00 62 1022.1
20260903014229 28 0 0.0 3.2 0.00 0.00 0.00 64 1022.1
20260903013729 28 0 0.0 6.4 0.00 0.00 0.00 64 1022.2
20260903013228 28 0 0.0 6.4 0.00 0.00 0.00 63 1022.2
20260903012729 28 0 0.0 0.0 0.00 0.00 0.00 62 1022.2
20260903012228 28 0 0.0 0.0 0.00 0.00 0.00 61 1022.1
20260903011728 29 0 0.0 0.0 0.00 0.00 0.00 59 1022.1
20260903011229 29 0 0.0 0.0 0.00 0.00 0.00 58 1022.1
20260903010728 29 0 0.0 0.0 0.00 0.00 0.00 58 1021.9
20260903010228 29 0 0.0 0.0 0.00 0.00 0.00 57 1021.9
20260903005728 29 0 0.0 0.0 0.00 0.00 0.00 57 1021.9
20260903005228 29 0 0.0 0.0 0.00 0.00 0.00 56 1021.8
20260903004728 29 0 0.0 0.0 0.00 0.00 0.00 55 1021.9
20260903004228 29 0 0.0 0.0 0.00 0.00 0.00 56 1021.8
20260903003728 29 0 0.0 0.0 0.00 0.00 0.00 57 1021.8
20260903003228 29 0 0.0 6.4 0.00 0.00 0.00 58 1021.7
20260903002728 29 0 0.0 6.4 0.00 0.00 0.00 59 1021.7
20260903002228 29 0 0.0 4.8 0.00 0.00 0.00 61 1021.6
20260903001229 29 0 0.0 0.0 0.00 0.00 0.00 61 1021.6
20260903000727 29 0 0.0 3.2 0.00 0.00 0.00 61 1021.5
20260903000227 29 0 0.0 4.8 0.00 0.00 0.00 60 1021.5
20260902235727 29 0 0.0 4.8 0.00 0.00 0.00 59 1021.5
20260902235227 29 0 0.0 3.2 0.00 0.00 0.00 60 1021.4
20260902234515 29 0 0.0 4.8 0.00 0.00 0.00 60 1021.4
20260902234015 29 328 1.6 6.4 0.00 0.00 0.00 60 1021.3
20260902233515 29 328 1.6 6.4 0.00 0.00 0.00 60 1021.3
20260902233015 29 328 1.6 4.8 0.00 0.00 0.00 60 1021.3
20260902232515 29 0 0.0 4.8 0.00 0.00 0.00 60 1021.3
20260902232015 29 0 0.0 4.8 0.00 0.00 0.00 60 1021.4
20260902231518 29 0 0.0 4.8 0.00 0.00 0.00 60 1021.3
20260902231015 30 0 0.0 0.0 0.00 0.00 0.00 61 1021.3
20260902230516 30 0 0.0 4.8 0.00 0.00 0.00 61 1021.2
20260902230015 30 0 0.0 4.8 0.00 0.00 0.00 62 1021.2
20260902225515 30 0 0.0 3.2 0.00 0.00 0.00 62 1021.2
20260902225015 30 0 0.0 3.2 0.00 0.00 0.00 61 1021.2
20260902224514 30 0 0.0 0.0 0.00 0.00 0.00 61 1021.2
20260902224015 30 0 0.0 0.0 0.00 0.00 0.00 61 1021.2
20260902223514 30 0 0.0 0.0 0.00 0.00 0.00 61 1021.1
20260902223015 31 0 0.0 6.4 0.00 0.00 0.00 60 1021.2
20260902222515 31 0 0.0 6.4 0.00 0.00 0.00 61 1021.2
20260902222015 31 0 0.0 4.8 0.00 0.00 0.00 60 1021.2
20260902221515 31 0 0.0 4.8 0.00 0.00 0.00 59 1021.2
20260902221014 31 0 0.0 4.8 0.00 0.00 0.00 59 1021.4
20260902220515 31 0 0.0 4.8 0.00 0.00 0.00 58 1021.4
20260902220015 31 0 0.0 0.0 0.00 0.00 0.00 59 1021.3
20260902215515 31 0 0.0 3.2 0.00 0.00 0.00 57 1021.4
20260902215015 32 0 0.0 3.2 0.00 0.00 0.00 57 1021.5
20260902214515 32 0 0.0 0.0 0.00 0.00 0.00 56 1021.4
20260902214014 32 0 0.0 0.0 0.00 0.00 0.00 56 1021.5
20260902213515 32 0 0.0 1.6 0.00 0.00 0.00 57 1021.4
20260902213015 32 0 0.0 1.6 0.00 0.00 0.00 55 1021.3
20260902212515 32 0 0.0 3.2 0.00 0.00 0.00 55 1021.3
20260902212014 32 0 0.0 3.2 0.00 0.00 0.00 55 1021.3
20260902211514 32 0 0.0 0.0 0.00 0.00 0.00 55 1021.4
20260902211015 32 0 0.0 0.0 0.00 0.00 0.00 55 1021.3
20260902210515 32 0 0.0 0.0 0.00 0.00 0.00 54 1021.3
20260902210015 32 0 0.0 0.0 0.00 0.00 0.00 54 1021.3
20260902205515 32 0 0.0 3.2 0.00 0.00 0.00 54 1021.4
20260902205015 32 0 0.0 3.2 0.00 0.00 0.00 56 1021.3
20260902204515 32 0 0.0 3.2 0.00 0.00 0.00 53 1021.4
20260902204015 33 0 0.0 1.6 0.00 0.00 0.00 55 1021.4
20260902203514 33 0 0.0 4.8 0.00 0.00 0.00 54 1021.4
20260902203014 33 0 0.0 4.8 0.00 0.00 0.00 53 1021.4
20260902202514 33 0 0.0 3.2 0.00 0.00 0.00 53 1021.4
20260902202015 32 0 0.0 3.2 0.00 0.00 0.00 54 1021.4
20260902201514 32 0 0.0 4.8 0.00 0.00 0.00 54 1021.6
20260902201014 32 0 0.0 4.8 0.00 0.00 0.00 56 1021.6
20260902200514 32 0 0.0 6.4 0.00 0.00 0.00 56 1021.7
20260902200014 32 0 0.0 6.4 0.00 0.00 0.00 55 1021.7
20260902195514 32 0 0.0 6.4 0.00 0.00 0.00 58 1021.8
20260902195014 31 0 0.0 6.4 0.00 0.00 0.00 59 1021.8
20260902194515 31 0 0.0 6.4 0.00 0.00 0.00 60 1021.9
20260902194015 30 0 0.0 4.8 0.00 0.00 0.00 60 1021.9
20260902193437 30 0 0.0 6.4 0.00 0.00 0.00 62 1022.0
20260902192936 30 328 1.6 6.4 0.00 0.00 0.00 62 1022.1
20260902192439 29 0 0.0 4.8 0.00 0.00 0.00 63 1022.1
20260902191936 29 0 0.0 4.8 0.00 0.00 0.00 62 1022.2
20260902191436 29 0 0.0 6.4 0.00 0.00 0.00 62 1022.2
20260902190936 30 0 0.0 6.4 0.00 0.00 0.00 61 1022.2
20260902190436 30 328 1.6 6.4 0.00 0.00 0.00 62 1022.3
20260902185936 30 0 0.0 4.8 0.00 0.00 0.00 58 1022.3
20260902185439 31 0 0.0 9.7 0.00 0.00 0.00 58 1022.4
20260902184936 31 328 1.6 9.7 0.00 0.00 0.00 60 1022.4
20260902184436 31 0 0.0 6.4 0.00 0.00 0.00 56 1022.4
20260902183936 31 0 0.0 6.4 0.00 0.00 0.00 56 1022.4
20260902183437 31 0 0.0 4.8 0.00 0.00 0.00 56 1022.4
20260902182936 32 0 0.0 6.4 0.00 0.00 0.00 54 1022.4
20260902182439 32 0 0.0 6.4 0.00 0.00 0.00 53 1022.4
20260902181937 32 0 0.0 4.8 0.00 0.00 0.00 57 1022.5
20260902181436 31 0 0.0 4.8 0.00 0.00 0.00 58 1022.5
20260902180936 31 328 1.6 4.8 0.00 0.00 0.00 58 1022.5
20260902180436 31 0 0.0 8.0 0.00 0.00 0.00 58 1022.6
20260902175936 31 328 4.8 8.0 0.00 0.00 0.00 57 1022.7
20260902175437 31 328 3.2 6.4 0.00 0.00 0.00 59 1022.7
20260902174936 31 0 0.0 6.4 0.00 0.00 0.00 58 1022.8
20260902174436 31 328 1.6 6.4 0.00 0.00 0.00 60 1022.8
20260902173936 30 328 1.6 6.4 0.00 0.00 0.00 59 1022.9
20260902173436 30 328 1.6 6.4 0.00 0.00 0.00 60 1022.9
20260902172937 30 0 0.0 4.8 0.00 0.00 0.00 60 1023.0
20260902172418 30 0 0.0 1.6 0.00 0.00 0.00 60 1023.0
20260902171606 30 0 0.0 4.8 0.00 0.00 0.00 61 1023.1
20260902171106 30 328 1.6 4.8 0.00 0.00 0.00 62 1023.1
20260902170606 30 0 0.0 0.0 0.00 0.00 0.00 63 1023.0
20260902170416 30 0 0.0 3.2 0.00 0.00 0.00 62 1023.2
20260902170414 30 0 0.0 3.2 0.00 0.00 0.00 62 1023.2
20260902170106 30 0 0.0 3.2 0.00 0.00 0.00 62 1023.2
20260902165606 30 0 0.0 3.2 0.00 0.00 0.00 62 1023.2
20260902165409 29 0 0.0 3.2 0.00 0.00 0.00 65 1023.2
20260902165109 29 0 0.0 3.2 0.00 0.00 0.00 65 1023.2
20260902164916 29 0 0.0 3.2 0.00 0.00 0.00 64 1023.2
20260902164606 29 0 0.0 3.2 0.00 0.00 0.00 64 1023.2
20260902164239 30 0 0.0 4.8 0.00 0.00 0.00 63 1023.3
20260902164106 30 0 0.0 4.8 0.00 0.00 0.00 63 1023.3
20260902163606 30 0 0.0 6.4 0.00 0.00 0.00 61 1023.4
20260902163109 31 328 3.2 6.4 0.00 0.00 0.00 59 1023.5